Troyes, France

4:09 AM CET on December 09, 2016 (GMT +0100)
Barberey

Weather History for LFQB - August, 2013

Change the Weather History Date:

Monday, August 26, 2013

  Actual Average Record
Temperature  
Mean Temperature 58 °F -  
Max Temperature 68 °F 69 °F 98 °F (2016)
Min Temperature 48 °F 51 °F 46 °F (1998)
Degree Days  
Heating Degree Days 7    
Growing Degree Days 8 (Base 50)    
Moisture  
Dew Point 55 °F    
Average Humidity 89    
Maximum Humidity 100    
Minimum Humidity 60    
Precipitation  
Precipitation 0.12 in - - ()
Sea Level Pressure  
Sea Level Pressure 29.94 in    
Wind  
Wind Speed 5 mph ()    
Max Wind Speed 13 mph    
Max Gust Speed -    
Visibility 6.0 miles    
Events Rain    
Averages and records for this station are not official NWS values.
T = Trace of Precipitation, MM = Missing Value Source: Averaged Metar Reports

Daily Weather History Graph

Daily Weather History Graph

Search for Another Location

Airport or City:

Trip Planner

Search our weather history database for the weather conditions in past years. The results will help you decide how hot, cold, wet, or windy it might be!

Date:

Astronomy

Aug. 26, 2013 Rise Set
Actual Time 6:53 AM CEST 8:37 PM CEST
Civil Twilight 6:20 AM CEST 9:10 PM CEST
Nautical Twilight 5:39 AM CEST 9:50 PM CEST
Astronomical Twilight 4:54 AM CEST 10:34 PM CEST
Moon 11:04 PM CEST (8/26) 1:11 PM CEST (8/26)
Length of Visible Light 14h 50m
Length of Day
13h 44m
Waning Gibbous, 69% of the Moon is Illuminated
Aug 26
Waning Gibbous
Aug 28
Last Quarter
Sep 5
New
Sep 12
First Quarter
Sep 19
Full

Hourly Weather History & Observations

Time (CEST) Temp. Dew Point Humidity Pressure Visibility Wind Dir Wind Speed Gust Speed Precip Events Conditions
12:00 AM 50.0 °F 48.2 °F 94% 29.95 in 6.2 mi Calm Calm - N/A   Unknown
12:30 AM 50.0 °F 48.2 °F 94% 29.95 in 6.2 mi NNW 3.5 mph - N/A   Unknown
1:00 AM 50.0 °F 48.2 °F 94% 29.95 in 6.2 mi NW 2.3 mph - N/A   Unknown
1:30 AM 50.0 °F 50.0 °F 100% 29.95 in 6.2 mi WNW 3.5 mph - N/A   Unknown
2:00 AM 49 °F 47 °F 89% 29.98 in 12 mi NW 5.8 mph - -   Clear
2:00 AM 48.2 °F 46.4 °F 93% 29.95 in 6.2 mi NW 5.8 mph - N/A   Unknown
2:30 AM 48.2 °F 46.4 °F 93% 29.95 in 6.2 mi WNW 5.8 mph - N/A   Unknown
3:00 AM 50.0 °F 48.2 °F 94% 29.95 in 6.2 mi WNW 6.9 mph - N/A   Unknown
3:30 AM 51.8 °F 50.0 °F 94% 29.95 in 6.2 mi NNW 4.6 mph - N/A   Unknown
4:00 AM 51.8 °F 50.0 °F 94% 29.95 in 6.2 mi NW 4.6 mph - N/A   Unknown
4:30 AM 51.8 °F 50.0 °F 94% 29.95 in 6.2 mi NNW 5.8 mph - N/A   Overcast
5:00 AM 51.8 °F 50.0 °F 94% 29.95 in 6.2 mi NNW 5.8 mph - N/A   Overcast
5:30 AM 53.6 °F 51.8 °F 94% 29.95 in 6.2 mi NNW 5.8 mph - N/A   Overcast
6:00 AM 53.6 °F 51.8 °F 94% 29.95 in 6.2 mi NW 5.8 mph - N/A   Overcast
6:30 AM 55.4 °F 53.6 °F 94% 29.95 in 6.2 mi WNW 8.1 mph - N/A   Overcast
7:00 AM 55.4 °F 53.6 °F 94% 29.95 in 6.2 mi WNW 6.9 mph - N/A   Overcast
7:30 AM 55.4 °F 53.6 °F 94% 29.95 in 6.2 mi North 4.6 mph - N/A   Overcast
8:00 AM 55.4 °F 53.6 °F 94% 29.95 in 6.2 mi NNW 5.8 mph - N/A   Overcast
8:30 AM 57.2 °F 53.6 °F 88% 29.95 in 6.2 mi WNW 8.1 mph - N/A   Mostly Cloudy
9:00 AM 57.2 °F 55.4 °F 94% 29.95 in 6.2 mi NW 8.1 mph - N/A   Mostly Cloudy
9:30 AM 59.0 °F 55.4 °F 88% 29.95 in 6.2 mi NW 9.2 mph - N/A   Mostly Cloudy
10:00 AM 59.0 °F 55.4 °F 88% 29.95 in 6.2 mi WNW 10.4 mph - N/A   Unknown
10:30 AM 60.8 °F 57.2 °F 88% 29.95 in 6.2 mi NNW 10.4 mph - N/A   Mostly Cloudy
11:00 AM 60.8 °F 57.2 °F 88% 29.95 in 6.2 mi NW 10.4 mph - N/A   Mostly Cloudy
11:30 AM 62.6 °F 57.2 °F 82% 29.95 in 6.2 mi North 8.1 mph - N/A   Mostly Cloudy
12:00 PM 62.6 °F 57.2 °F 82% 29.95 in 5.6 mi NNW 8.1 mph - N/A   Overcast
12:30 PM 64.4 °F 59.0 °F 83% 29.95 in 5.0 mi NW 9.2 mph - N/A   Mostly Cloudy
1:00 PM 64.4 °F 59.0 °F 83% 29.92 in 5.6 mi NNW 10.4 mph - N/A   Scattered Clouds
1:30 PM 68.0 °F 59.0 °F 73% 29.92 in 5.0 mi NW 8.1 mph - N/A   Mostly Cloudy
2:00 PM 68 °F 57 °F 60% 29.92 in 6 mi North 8.1 mph - -   Overcast
2:00 PM 68.0 °F 57.2 °F 68% 29.92 in 6.2 mi North 8.1 mph - N/A   Mostly Cloudy
2:30 PM 68.0 °F 59.0 °F 73% 29.92 in 6.2 mi North 9.2 mph - N/A Rain Light Rain
3:00 PM 64.4 °F 59.0 °F 83% 29.92 in 5.6 mi North 12.7 mph - N/A Rain Rain
3:30 PM 62.6 °F 59.0 °F 88% 29.92 in 4.3 mi North 9.2 mph - N/A Rain Light Rain
4:00 PM 62.6 °F 59.0 °F 88% 29.92 in 5.6 mi North 8.1 mph - N/A Rain Light Rain
4:30 PM 64.4 °F 59.0 °F 83% 29.92 in 5.6 mi North 5.8 mph - N/A   Overcast
5:00 PM 62.6 °F 59.0 °F 88% 29.92 in 4.3 mi NNW 8.1 mph - N/A   Overcast
5:30 PM 64.4 °F 60.8 °F 88% 29.92 in 5.0 mi NNW 6.9 mph - N/A   Mostly Cloudy
6:00 PM 60.8 °F 59.0 °F 94% 29.92 in 3.7 mi North 9.2 mph - N/A Rain Light Rain
6:30 PM 62.6 °F 59.0 °F 88% 29.92 in 6.2 mi North 4.6 mph - N/A   Overcast
7:00 PM 62.6 °F 59.0 °F 88% 29.92 in 6.2 mi North 2.3 mph - N/A   Mostly Cloudy
7:30 PM 62.6 °F 59.0 °F 88% 29.92 in 6.2 mi Variable 1.2 mph - N/A   Mostly Cloudy
8:00 PM 62 °F 60 °F 90% 29.94 in 7 mi NNW 4.6 mph - -   Clear
8:00 PM 62.6 °F 59.0 °F 88% 29.92 in 6.2 mi NNW 4.6 mph - N/A   Mostly Cloudy
8:30 PM 60.8 °F 59.0 °F 94% 29.95 in 5.6 mi NNW 8.1 mph - N/A   Mostly Cloudy
9:00 PM 60.8 °F 59.0 °F 94% 29.95 in - NNW 8.1 mph - N/A   Overcast
9:30 PM 60.8 °F 59.0 °F 94% 29.95 in - NNW 6.9 mph - N/A   Overcast
10:00 PM 60.8 °F 59.0 °F 94% 29.95 in 5.6 mi North 8.1 mph - N/A   Overcast
10:30 PM 60.8 °F 59.0 °F 94% 29.95 in 5.0 mi North 6.9 mph - N/A   Overcast
11:00 PM 60.8 °F 57.2 °F 88% 29.95 in 6.2 mi North 5.8 mph - N/A   Mostly Cloudy
11:30 PM 60.8 °F 57.2 °F 88% 29.95 in 6.2 mi North 4.6 mph - N/A   Overcast